Voltar ao catálogo

NAVSTAR 57

USA 183

AtivoNavegaçãoHEO
NORAD 28874·PAYLOAD·🇺🇸 United States

Lançado Sep 26, 2005 de Cape Canaveral Space Force Station

Loading…

Próximas Passagens (próximas 24 horas)

TLE

AtualizadoSource: CelesTrak SupGP

Época: Sep 17, 2026, 16:38 UTC

1 28874C 05038A   26260.69312500  .00000000  00000+0  00000+0 0  2606
2 28874  54.8083 269.4368 0128857 297.6237 137.7329  2.00559644    12

Acompanhe NAVSTAR 57 em tempo real com AllMySat

Download on the App Store